Location: Anjeux
(47.8815°N, 6.2076°E)
Time: 16:51:55
(UTC+00:00)

Lacrosse 4 Rocket - Pass Details

Date: 05 March 2021
Orbit: 537 x 620 km, 68.0° (Epoch: 16 April)

Event Time Altitude Azimuth Distance (km) Brightness Sun altitude
Exits shadow 03:39:52 25° 345° (NNW) 1,274 3.2 -25.3°
Maximum altitude 03:42:18 54° 53° (NE) 751 2.2 -25.0°
Drops below altitude 10° 03:46:38 10° 131° (SE) 1,955 4.5 -24.3°
Sets 03:48:54 0° 136° (SE) 2,844 5.3 -23.9°
